Location: Kermapucano
(48.0667°N, 3.3000°W)
Time: 20:54:49
(UTC+00:00)

USA 305 - Pass Details

Date: 29 November 2020
Orbit: 563 x 580 km, 54.0° (Epoch: 25 January)

Event Time Altitude Azimuth Distance (km) Brightness Sun altitude
Exits shadow 05:40:19 33° 333° (NNW) 994 3.8 -19.3°
Maximum altitude 05:41:22 38° 6° (N) 895 3.8 -19.2°
Drops below altitude 10° 05:45:25 10° 76° (ENE) 1,900 6.5 -18.5°
Sets 05:47:49 0° 84° (E) 2,799 7.8 -18.1°
